Regional Weather Roundup
Issued by NWS

Home | Current Version | Previous Version | Graphics & Text | Print | Product List | Glossary On
Versions: 1 2 3 4 5 6 7 8 9 10 11 12 13 14 15 16 17 18 19 20 21 22 23 24 25 26 27 28 29 30 31 32 33 34 35 36 37 38 39 40 41 42 43 44 45 46 47 48 49 50
000
ASUS43 KOAX 201402
RWRNE

WEATHER ROUNDUP FOR NEBRASKA
NATIONAL WEATHER SERVICE OMAHA NE
900 AM CDT SUN APR 20 2014

NOTES: SATELLITE DATA IS BEING USED TO AUGMENT CLOUD COVER ABOVE
       12000 FEET.
       "FAIR" INDICATES FEW OR NO CLOUDS BELOW 12,000 FEET WITH NO
       SIGNIFICANT WEATHER AND/OR OBSTRUCTIONS TO VISIBILITY.

  * THESE STATIONS DO NOT REPORT WEATHER SUCH AS RAIN...SNOW OR FOG.

NEZ001>004-019>022-054>056-201500-
NEBRASKA PANHANDLE

CITY           SKY/WX    TMP DP  RH WIND       PRES   REMARKS
SCOTTSBLUFF    SUNNY     48  38  68 CALM      30.01R
ALLIANCE       SUNNY     50  41  71 SE9       29.99R
CHADRON        SUNNY     54  43  66 W3        29.94S
KIMBALL        SUNNY     48  42  77 W6        30.03R
SIDNEY         MOSUNNY   53  40  61 S6        30.04R
$$

NEZ057>060-069>072-079>082-201500-
SOUTHWEST NEBRASKA

CITY           SKY/WX    TMP DP  RH WIND       PRES   REMARKS
NORTH PLATTE   MOSUNNY   50  41  71 CALM      30.01R
IMPERIAL       PTSUNNY   48  41  76 VRB3      30.02R
LEXINGTON      PTSUNNY   54  43  66 CALM      30.00R
MCCOOK         CLOUDY    51  46  83 CALM      30.01R
OGALLALA       SUNNY     46  39  74 CALM      30.03F
$$

NEZ005>010-023>029-035>040-094-201500-
NORTH CENTRAL NEBRASKA

CITY           SKY/WX    TMP DP  RH WIND       PRES   REMARKS
VALENTINE      SUNNY     50  29  44 S5        30.00S
AINSWORTH      SUNNY     56  32  41 SE7       30.00S
BROKEN BOW     MOSUNNY   56  37  49 CALM      30.00R
O`NEILL        SUNNY     56  33  41 NE8       29.99F
ORD            MOSUNNY   53  35  50 CALM      29.99R
THEDFORD       SUNNY     52  38  60 CALM      30.02R
$$

NEZ041-046>049-061>064-073>077-083>087-201500-
SOUTH CENTRAL NEBRASKA

CITY           SKY/WX    TMP DP  RH WIND       PRES   REMARKS
GRAND ISLAND   PTSUNNY   58  47  66 S5        30.00R
AURORA         PTSUNNY   61  52  71 W7        29.99R
HASTINGS       PTSUNNY   60  49  66 VRB3      29.99R
HEBRON         CLOUDY    64  51  62 SW14G21   30.00R
HOLDREGE       PTSUNNY   55  46  71 NE3       30.00R
KEARNEY *      PTSUNNY   55  43  62 CALM      30.01R
YORK           PTSUNNY   63  52  67 SW13      29.99R
$$

NEZ011>018-030>034-042>045-201500-
NORTHEAST NEBRASKA

CITY           SKY/WX    TMP DP  RH WIND       PRES   REMARKS
NORFOLK        PTSUNNY   57  45  64 NW5       29.97R
ALBION         MOSUNNY   54  41  62 N6        29.97F
BLAIR          SUNNY     65  49  55 S10G17    29.98S
COLUMBUS *     PTSUNNY   61  48  63 S6        29.98S
FREMONT        MOSUNNY   64  49  57 S7        29.98F
TEKAMAH        MOSUNNY   66  48  52 S10       29.98S
$$

NEZ050>053-065>068-078-088>093-201500-
SOUTHEAST NEBRASKA

CITY           SKY/WX    TMP DP  RH WIND       PRES   REMARKS
LINCOLN        MOSUNNY   67  49  52 SW15      29.99R
OMAHA EPPLEY   PTSUNNY   66  49  54 S8        29.99R
BEATRICE       PTSUNNY   67  50  54 SW16G22   30.01R
FALLS CITY     MOSUNNY   66  51  58 S17G23    30.01F
NEBRASKA CITY  PTSUNNY   67  49  53 SW21G29   30.00S
PLATTSMOUTH    MOSUNNY   66  47  51 S13       30.00S
$$

NEZ044-045-051>053-067-201500-
OMAHA AREA

CITY           SKY/WX    TMP DP  RH WIND       PRES   REMARKS
OMAHA EPPLEY   PTSUNNY   66  49  54 S8        29.99R
BLAIR          SUNNY     65  49  55 S10G17    29.98S
FREMONT        MOSUNNY   64  49  57 S7        29.98F
MILLARD        MOSUNNY   66  50  55 SW7       29.99S
OFFUTT AFB     MOSUNNY   67  51  56 S6        29.99S
PLATTSMOUTH    MOSUNNY   66  47  51 S13       30.00S
WAHOO          FAIR      65  48  54 SW9       29.98S
$$



USA.gov is the U.S. government's official web portal to all federal, state and local government web resources and services.